OISL  Lar Airport

Add Bookmark

Lar, Iran

Status IATA
Operational LRR
Latitude Longitude
27° 40' 28" N 54° 22' 59" E
27.674700 54.383301
Local (DST + 5) UTC (GMT + 4)
Sep 21, 2014 10:38 Sep 21, 2014 18:08
Sunrise-Sunset Local UTC
Begin Civil Twilight 06:15 01:45
Sunrise 06:39 02:09
Sunset 06:51 14:21
End Civil Twilight 07:14 14:44

Current Weather

METAR Observed VFR
OISL 211700Z 00000KT CAVOK 33/12 Q1008 Sun, Sep 21, 2014 @ 17:00 UTC
(1 Hour, 8 Minutes ago)
Visual Flight Rules
Wind Visibility Clouds Conditions
Calm 10 km or more
  • Clear skies
  • No significant weather
Temperatures Readings Precipitation
Current Temp 33°C (91°F)
Dewpoint 12°C (54°F)
Humidity 28%
Altimeter 29.76"Hg
Sea Level Pressure 1008mb
Field Elevation 2641.08'
None Recorded

Additional weather within a 185.2km radius of OISL

Map ICAO Location
OIBK 133.7km S (197°)
OIBL 134.3km S (161°)
OIBV 139.6km S (227°)
OISF 149.8km N (335°)
OIBP 165.4km W (259°)
OIKQ 181.7km S (124°)

24 Hour Weather History

Loading
-

24 Hour Weather Graphs

Loading
-

CheckWX.com is intended as a tool to help pilots better visualize weather data. It is not intended as a substitute for an official weather briefing obtained from a Flight Service Station. CheckWX.com does not meet the FAA requirements for an official pre-flight weather briefing. Therefore, it's important that pilots still call and obtain an official FSS pre-flight weather briefing.